Simultaneous Nadir Overpasses (SNOs) Predictions

Prediction of SNOs near US between NOAA-19 and NPP Satellite Orbit:

Table of predicted SNOs near US for the next 10.0 days since TLE Epoch: 7/31/2012
Index Date (NOAA-19) Time (NOAA-19) NOAA-19 Lat,Lon Date (NPP) Time (NPP) NPP Lat,Lon Distance(km) Time Diff (sec)
1 08/09/2012 06:28:34 44.80, -65.03 08/09/2012 06:28:59 45.33, -67.58 208.21 25
2 08/09/2012 08:09:17 49.51, -88.61 08/09/2012 08:09:09 49.94, -91.04 181.68 8
3 08/09/2012 09:51:57 47.52,-114.99 08/09/2012 09:51:14 47.92,-117.29 177.95 43
4 08/09/2012 17:59:20 49.98, -77.23 08/09/2012 17:55:53 49.73, -78.54 98.11 207
5 08/09/2012 19:41:25 49.97,-102.75 08/09/2012 19:37:23 49.74,-103.92 88.02 242
6 08/09/2012 21:21:07 41.78,-125.00 08/09/2012 21:16:32 41.60,-126.12 95.14 275
